THOR ABLESTAR DEB, 3124

Orbit data source: Space-Track

THOR ABLESTAR DEB, 3124 is space debris in LEO originally from a launch on Thu, 29 Jun 1961 UTC launched from the Air Force Eastern Test Range (AFETR). Debris objects in space refer to the collection of defunct objects orbiting the Earth. Examples of debris include non-operational satellites, rocket bodies, and fragments generated from explosions, collisions, or faulty payload assembly.

Loading next visibility...
Identifier
3124, 1961-015HX
Orbit
LEO
Country
Flag of USUS
Related business
Manufacturer
Unknown
Mission
Spacecraft
Bus & Motor
Unknown
Mass
Unknown
Launch date (UTC)
1961-06-29 (64 years ago)
Launch vehicle
Unknown
Launch site
Air Force Eastern Test Range (AFETR)
Object type
Payload
Rocket body
Debris
Shape & HBR
Unknown
Radar Cross Section
Small (<0.1 m²)

Expand to show TLE details & history
Last TLE update: 1 day ago

TLE from 1 day ago
0 THOR ABLESTAR DEB
1 03124U 61015HX  25260.09649465  .00000406  00000-0  47335-3 0  9996
2 03124  66.9855 188.9617 0330250 269.6980  86.6242 13.56584125132086
Epoch: 2025-09-17T02:18Z
TLE epoch observation values (Epoch: 2025-09-17T02:18:57.137Z)
Latitude
-0.00003°
Longitude
157.94627°
Altitude
1,043.837 km
Speed
7.333 km/s
True Right ascension
12h 35m 50s
True Declination
0° 00' 00"
Sunlit
Object was in daylight at epoch
Visualization orbit readout
Latitude
Unknown
Longitude
Unknown
Altitude
Unknown
Speed
Unknown
Apparent Right ascension
Unknown
Apparent Declination
Unknown
Sunlit
N/A
Visualization observer readout
Local Sidereal Time
23:30:22
Azimuth
Unknown
Elevation
Unknown
Doppler factor
Unknown
Orbital elements
Apogee altitude
1,291.728 km
Perigee altitude
801.329 km
Semi-major axis
7,424.666 km
Eccentricity
0.03303
Inclination
66.9855°
RAAN
188.9617°
Arg. of periapsis
269.698°
True anomaly
90.40847°
Mean anomaly
86.6242°
Eccentric anomaly
88.51576°
Mean motion
3.39256 °/min
Orbital period
106.11 mins
BSTAR
0.00047335
Loading maneuver chart data...
Computing Atmospheric mass density...

Documentation

Showing up to 5 results
|